CAPE
4 5 4 4 0 0 0 0 0 0 0 0 0 0 0 0 0 0 0 0 0 0 0 0 0 0 0 0 0 0 0 0 0 0 0 0 0 0 0 0 0 0 4 0 0 0 0
6 5 5 4 3 1 0 0 0 0 0 0 0 0 0 0 0 0 0 0 0 0 0 0 0 0 0 0 0 0 0 0 0 0 0 0 0 0 0 0 0 0 33 0 0 0 0
10 10 3 3 5 4 1 0 0 0 0 0 0 0 0 0 0 0 0 0 0 0 0 0 0 0 0 0 0 0 0 0 0 0 0 0 0 0 0 0 0 0 26 0 0 0 0
7 6 5 2 6 5 2 1 0 0 0 0 0 0 0 0 0 0 0 0 0 0 0 0 0 0 0 0 0 0 0 0 0 0 0 0 0 0 0 0 0 0 0 10 1 0 0
4 6 6 4 5 2 1 0 0 0 0 0 0 0 0 0 0 0 0 0 0 0 0 0 0 0 0 0 0 0 0 0 0 0 0 0 0 0 0 0 0 0 0 22 18 77 158
1 2 7 7 5 3 1 0 0 0 0 0 0 0 0 0 0 0 0 0 0 0 0 0 0 0 0 0 0 0 0 0 0 0 0 0 0 0 0 0 0 0 0 40 23 13 263
0 2 0 5 4 1 0 0 0 0 0 0 0 0 0 0 0 0 0 0 0 0 0 0 0 0 0 0 0 0 0 0 0 0 0 0 0 0 0 0 0 0 37 0 76 91 165
0 0 0 2 0 0 0 0 0 0 0 0 0 0 0 0 0 0 0 0 0 0 0 0 0 0 0 0 0 0 0 0 0 0 0 0 0 0 0 0 0 0 1 0 13 93 103
0 0 0 0 0 1 0 0 0 0 0 0 0 0 0 0 0 0 0 0 0 0 0 0 0 0 0 0 0 0 0 0 0 0 0 0 0 0 0 0 0 0 0 9 4 31 14
1 0 0 0 0 0 0 0 0 0 0 0 0 0 0 0 0 0 0 0 0 0 0 0 0 0 0 0 0 0 0 0 0 0 0 0 0 0 0 0 0 0 0 0 45 12 9
0 0 0 0 0 0 0 0 0 0 0 0 0 0 0 0 0 0 0 0 0 0 0 0 0 0 0 0 0 0 0 0 0 0 0 0 0 0 0 0 0 0 0 0 0 0 1
1 0 0 0 0 0 0 0 0 0 0 0 0 0 0 0 0 0 0 0 0 0 0 0 0 0 0 0 0 0 0 0 0 0 0 0 0 0 0 0 0 0 0 0 0 0 0
5 3 1 0 0 0 0 0 0 0 0 0 0 0 0 0 0 0 0 0 0 0 0 0 0 0 0 0 0 0 0 0 0 0 0 0 0 0 0 0 0 0 0 0 0 0 0
0 0 0 0 0 0 0 0 0 0 0 0 0 0 0 0 0 0 0 0 0 0 0 0 0 0 0 0 0 0 0 0 0 0 0 0 0 0 0 0 0 0 0 0 0 0 0
0 0 0 0 0 0 0 0 0 0 0 0 0 0 0 0 0 0 0 0 0 0 0 0 0 0 0 0 0 0 0 0 0 0 0 0 0 0 0 0 0 0 0 0 0 0 0
0 1 2 3 2 0 0 0 0 0 0 0 0 0 0 0 0 0 0 0 0 0 0 0 0 0 0 0 0 0 0 0 0 0 0 0 0 0 0 0 0 0 0 0 0 0 0
1 2 2 0 0 0 0 0 0 0 0 0 0 0 0 0 0 0 0 0 0 0 0 0 0 0 0 0 0 0 0 0 0 0 0 0 0 0 0 0 0 0 0 0 0 0 0
1 0 0 0 0 0 0 0 0 0 0 0 0 0 0 0 0 0 0 0 0 0 0 0 0 0 0 0 0 0 0 0 0 0 0 0 0 0 0 0 0 0 0 0 0 0 0
2 0 0 0 0 0 0 0 0 0 0 0 0 0 0 0 0 0 0 0 0 0 0 0 0 0 0 0 0 0 0 0 0 0 0 0 0 0 0 0 0 0 0 0 0 0 0
0 3 1 0 0 1 2 0 0 0 0 0 0 0 0 3 0 0 0 0 0 0 0 0 0 0 0 0 0 0 0 0 0 0 0 0 0 0 0 0 0 0 0 0 0 0 0
3 4 3 3 2 2 0 0 0 1 0 0 0 7 9 2 0 0 0 0 0 0 0 0 0 0 0 0 0 0 0 0 0 0 0 0 0 0 0 0 0 0 0 0 0 0 0
4 3 3 3 6 3 2 0 0 0 1 0 9 23 4 3 3 0 0 0 0 0 0 0 0 0 0 0 0 0 0 0 0 0 0 0 0 0 0 0 0 0 0 0 0 0 0
3 3 4 1 0 0 0 4 15 6 7 2 0 1 15 8 0 0 0 0 0 0 0 0 0 0 0 0 0 0 0 0 0 0 0 0 0 0 0 0 0 0 0 0 0 0 0
4 3 3 3 3 6 23 40 12 26 24 8 0 12 7 1 0 0 0 0 0 0 0 0 0 0 0 0 0 0 0 0 0 0 0 0 0 0 0 0 0 0 0 0 0 0 0
4 5 3 4 17 22 20 17 13 50 71 20 0 13 3 0 0 0 0 0 0 0 0 0 0 0 0 0 0 0 0 0 0 0 0 0 0 0 0 0 0 0 0 0 0 0 0
1 0 2 3 17 24 8 13 13 20 1 1 5 31 10 0 0 0 0 0 0 0 0 0 0 0 0 0 0 0 0 0 0 0 0 0 0 0 0 0 0 0 0 0 0 0 3
0 0 4 1 26 22 25 15 3 32 20 1 0 25 8 5 0 0 0 0 0 0 0 0 0 0 0 0 0 0 0 0 0 0 0 0 0 0 0 0 0 0 0 0 0 0 334
0 0 0 0 12 16 6 21 11 16 3 10 0 10 15 8 0 0 0 0 0 0 0 0 0 0 0 0 0 0 0 0 0 0 0 0 0 0 0 0 0 0 0 0 0 0 527
0 0 0 0 0 14 27 10 26 3 0 8 2 3 16 7 0 0 0 0 0 0 0 0 0 0 0 0 0 0 0 0 0 0 0 0 0 0 0 0 0 0 0 0 0 0 4
CIN
-0 -0 -0 -0 -0 -0 -0 -0 -0 -0 -0 -0 -0 -0 -0 -0 -0 -0 -0 -0 -0 -0 -0 -0 -0 -0 -0 -0 -0 -0 -0 -0 -0 -0 -0 -0 -0 -0 -0 -0 -0 -0 -14 -0 -0 -0 -0
-0 -0 -0 -0 -0 -0 -0 -0 -0 -0 -0 -0 -0 -0 -0 -0 -0 -0 -0 -0 -0 -0 -0 -0 -0 -0 -0 -0 -0 -0 -0 -0 -0 -0 -0 -0 -0 -0 -0 -0 -0 -0 -7 -0 -0 -0 -0
-0 -0 -0 -0 -0 -0 -0 -0 -0 -0 -0 -0 -0 -0 -0 -0 -0 -0 -0 -0 -0 -0 -0 -0 -0 -0 -0 -0 -0 -0 -0 -0 -0 -0 -0 -0 -0 -0 -0 -0 -0 -0 -7 -0 -0 -0 -0
-0 -0 -0 -0 -0 -0 -0 -0 -0 -0 -0 -0 -0 -0 -0 -0 -0 -0 -0 -0 -0 -0 -0 -0 -0 -0 -0 -0 -0 -0 -0 -0 -0 -0 -0 -0 -0 -0 -0 -0 -0 -0 -0 -17 -17 -0 -20
-0 -0 -0 -0 -0 -0 -0 -0 -0 -0 -0 -0 -0 -0 -0 -0 -0 -0 -0 -0 -0 -0 -0 -0 -0 -0 -0 -0 -0 -0 -0 -0 -0 -0 -0 -0 -0 -0 -0 -0 -0 -0 -0 -4 -12 -10 -31
-0 -0 -0 -0 -0 -0 -0 -0 -0 -0 -0 -0 -0 -0 -0 -0 -0 -0 -0 -0 -0 -0 -0 -0 -0 -0 -0 -0 -0 -0 -0 -0 -0 -0 -0 -0 -0 -0 -0 -0 -0 -0 -0 -8 -18 -23 -29
-0 -0 -0 -0 -0 -0 -0 -0 -0 -0 -0 -0 -0 -0 -0 -0 -0 -0 -0 -0 -0 -0 -0 -0 -0 -0 -0 -0 -0 -0 -0 -0 -0 -0 -0 -0 -0 -0 -0 -0 -0 -0 -14 -0 -41 -13 -57
-0 -0 -0 -0 -0 -0 -0 -0 -0 -0 -0 -0 -0 -0 -0 -0 -0 -0 -0 -0 -0 -0 -0 -0 -0 -0 -0 -0 -0 -0 -0 -0 -0 -0 -0 -0 -0 -0 -0 -0 -0 -0 -15 -0 -21 -33 -22
-0 -0 -0 -0 -0 -0 -0 -0 -0 -0 -0 -0 -0 -0 -0 -0 -0 -0 -0 -0 -0 -0 -0 -0 -0 -0 -0 -0 -0 -0 -0 -0 -0 -0 -0 -0 -0 -0 -0 -0 -0 -0 -0 -30 -13 -38 -13
-0 -0 -0 -0 -0 -0 -0 -0 -0 -0 -0 -0 -0 -0 -0 -0 -0 -0 -0 -0 -0 -0 -0 -0 -0 -0 -0 -0 -0 -0 -0 -0 -0 -0 -0 -0 -0 -0 -0 -0 -0 -0 -0 -0 -8 -14 -19
-0 -0 -0 -0 -0 -0 -0 -0 -0 -0 -0 -0 -0 -0 -0 -0 -0 -0 -0 -0 -0 -0 -0 -0 -0 -0 -0 -0 -0 -0 -0 -0 -0 -0 -0 -0 -0 -0 -0 -0 -0 -0 -0 -0 -0 -0 -4
-0 -0 -0 -0 -0 -0 -0 -0 -0 -0 -0 -0 -0 -0 -0 -0 -0 -0 -0 -0 -0 -0 -0 -0 -0 -0 -0 -0 -0 -0 -0 -0 -0 -0 -0 -0 -0 -0 -0 -0 -0 -0 -0 -0 -0 -1 -1
-0 -0 -0 -0 -0 -0 -0 -0 -0 -0 -0 -0 -0 -0 -0 -0 -0 -0 -0 -0 -0 -0 -0 -0 -0 -0 -0 -0 -0 -0 -0 -0 -0 -0 -0 -0 -0 -0 -0 -0 -0 -0 -0 -0 -0 -0 -0
-0 -0 -0 -0 -0 -0 -0 -0 -0 -0 -0 -0 -0 -0 -0 -0 -0 -0 -0 -0 -0 -0 -0 -0 -0 -0 -0 -0 -0 -0 -0 -0 -0 -0 -0 -0 -0 -0 -0 -0 -0 -0 -0 -0 -0 -0 -0
-0 -0 -0 -0 -0 -0 -0 -0 -0 -0 -0 -0 -0 -0 -0 -0 -0 -0 -0 -0 -0 -0 -0 -0 -0 -0 -0 -0 -0 -0 -0 -0 -0 -0 -0 -0 -0 -0 -0 -0 -0 -0 -0 -0 -0 -0 -0
-0 -0 -0 -0 -0 -0 -0 -0 -0 -0 -0 -0 -0 -0 -0 -0 -0 -0 -0 -0 -0 -0 -0 -0 -0 -0 -0 -0 -0 -0 -0 -0 -0 -0 -0 -0 -0 -0 -0 -0 -0 -0 -0 -0 -0 -0 -0
-0 -0 -0 -0 -0 -0 -0 -0 -0 -0 -0 -0 -0 -0 -0 -0 -0 -0 -0 -0 -0 -0 -0 -0 -0 -0 -0 -0 -0 -0 -0 -0 -0 -0 -0 -0 -0 -0 -0 -0 -0 -0 -0 -0 -0 -0 -0
-0 -0 -0 -0 -0 -0 -0 -0 -0 -0 -0 -0 -0 -0 -0 -0 -0 -0 -0 -0 -0 -0 -0 -0 -0 -0 -0 -0 -0 -0 -0 -0 -0 -0 -0 -0 -0 -0 -0 -0 -0 -0 -0 -0 -0 -0 -0
-0 -0 -0 -0 -0 -0 -0 -0 -0 -0 -0 -0 -0 -0 -0 -16 -0 -0 -0 -0 -0 -0 -0 -0 -0 -0 -0 -0 -0 -0 -0 -0 -0 -0 -0 -0 -0 -0 -0 -0 -0 -0 -0 -0 -0 -0 -0
-0 -0 -0 -0 -0 -0 -0 -0 -0 -0 -0 -0 -0 -0 -0 -84 -0 -0 -20 -0 -0 -0 -0 -0 -0 -0 -0 -0 -0 -0 -0 -0 -0 -0 -0 -0 -0 -0 -0 -0 -0 -0 -0 -0 -0 -0 -0
-0 -0 -0 -1 -1 -1 -0 -0 -0 -1 -0 -0 -0 -1 -1 -0 -0 -0 -0 -0 -0 -0 -0 -0 -0 -0 -0 -0 -0 -0 -0 -0 -0 -0 -0 -0 -0 -0 -0 -0 -0 -0 -0 -0 -0 -0 -0
-0 -0 -0 -1 -0 -0 -0 -0 -0 -0 -1 -0 -1 -0 -1 -2 -0 -0 -0 -0 -0 -0 -0 -0 -0 -0 -0 -0 -0 -0 -0 -0 -0 -0 -0 -0 -0 -0 -0 -0 -0 -0 -0 -0 -0 -0 -0
-0 -0 -0 -0 -0 -0 -0 -1 -0 -3 -3 -0 -1 -1 -0 -0 -0 -0 -0 -0 -0 -0 -0 -0 -0 -0 -0 -0 -0 -0 -0 -0 -0 -0 -0 -0 -0 -0 -0 -0 -0 -0 -0 -0 -0 -0 -0
-0 -0 -0 -0 -0 -1 -1 -0 -1 -1 -2 -15 -1 -1 -0 -0 -1 -0 -0 -0 -0 -0 -0 -0 -0 -0 -0 -0 -0 -0 -0 -0 -0 -0 -0 -0 -0 -0 -0 -0 -0 -0 -0 -0 -0 -0 -0
-0 -0 -0 -0 -0 -0 -0 -0 -3 -2 -7 -19 -2 -1 -2 -0 -0 -0 -0 -0 -0 -0 -0 -0 -0 -0 -0 -0 -0 -0 -0 -0 -0 -0 -0 -0 -0 -0 -0 -0 -0 -0 -0 -0 -0 -0 -0
-0 -0 -0 -0 -1 -0 -0 -0 -1 -1 -0 -2 -4 -8 -2 -0 -0 -0 -0 -0 -0 -0 -0 -0 -0 -0 -0 -0 -0 -0 -0 -0 -0 -0 -0 -0 -0 -0 -0 -0 -0 -0 -0 -0 -0 -0 -7
-0 -0 -0 -0 -0 -0 -0 -0 -0 -0 -0 -2 -3 -4 -1 -0 -0 -0 -0 -0 -0 -0 -0 -0 -0 -0 -0 -0 -0 -0 -0 -0 -0 -0 -0 -0 -0 -0 -0 -0 -0 -0 -0 -0 -0 -0 -68
-0 -0 -0 -0 -6 -4 -4 -2 -0 -0 -2 -0 -0 -7 -1 -0 -0 -0 -0 -0 -0 -0 -0 -0 -0 -0 -0 -0 -0 -0 -0 -0 -0 -0 -0 -0 -0 -0 -0 -0 -0 -0 -0 -0 -0 -0 -67
-0 -0 -0 -0 -0 -8 -1 -0 -0 -0 -0 -0 -0 -1 -4 -0 -0 -0 -0 -0 -0 -0 -0 -0 -0 -0 -0 -0 -0 -0 -0 -0 -0 -0 -0 -0 -0 -0 -0 -0 -0 -0 -0 -0 -0 -0 -2
Wind_Speed
31 31 32 32 32 32 32 32 33 33 33 33 33 33 33 33 34 36 38 38 38 37 36 34 33 31 26 28 32 30 23 19 18 26 34 33 31 26 26 21 22 16 11 13 15 17 17
32 33 33 33 33 33 33 34 34 35 35 35 35 34 34 34 34 34 35 38 38 38 36 34 32 29 26 31 25 29 22 21 24 28 33 37 31 29 27 25 22 16 10 12 14 16 14
33 34 34 34 34 34 35 35 36 36 36 37 37 37 36 36 36 35 35 35 37 37 36 34 30 25 31 30 25 17 8 26 26 29 34 36 36 31 27 25 21 19 9 8 12 17 13
35 35 35 35 35 36 36 36 37 37 38 38 38 39 38 38 37 37 36 36 33 35 35 31 24 23 35 32 29 34 33 35 27 29 31 34 35 34 32 28 26 24 27 6 10 15 16
36 36 36 36 36 37 38 38 38 39 39 39 40 40 40 40 39 38 38 37 34 29 20 19 19 22 35 28 29 35 34 32 27 26 29 32 33 35 31 28 27 24 29 10 6 5 10
37 37 37 38 38 38 39 39 40 40 41 41 41 42 41 41 41 40 39 36 30 21 13 12 24 25 33 29 24 25 34 36 29 20 26 28 29 38 35 30 32 29 27 6 9 16 10
39 39 39 39 40 40 41 41 42 42 42 42 43 43 43 43 42 40 35 26 23 20 15 18 17 21 33 25 27 11 29 19 34 19 13 12 41 41 38 36 35 30 14 13 23 8 11
39 40 40 40 41 41 42 43 43 43 43 43 44 44 44 44 43 38 27 24 25 30 36 28 34 42 42 35 32 26 10 11 39 18 23 37 43 41 40 40 37 34 33 25 23 15 12
40 41 41 42 42 43 43 44 45 45 45 45 45 45 45 45 43 25 30 27 30 32 32 35 27 35 35 31 40 16 11 14 27 27 15 43 33 44 43 41 38 37 33 33 24 23 18
41 41 42 42 43 44 45 45 46 46 46 46 46 45 44 45 26 30 26 28 30 31 30 29 20 20 10 30 40 24 12 13 28 24 38 42 42 40 45 43 40 36 34 31 29 16 25
41 42 42 43 44 44 45 46 47 47 47 47 46 46 44 40 34 29 29 33 34 26 32 20 8 8 7 13 17 32 13 16 24 21 29 40 25 46 43 45 43 39 34 28 14 23 31
42 42 43 43 44 45 46 46 47 48 48 48 48 47 46 35 31 34 35 35 27 23 33 21 8 6 4 15 23 15 27 20 28 35 34 40 34 40 45 43 44 41 37 35 33 16 25
42 42 43 44 45 45 46 47 47 48 49 49 49 49 46 35 30 30 30 26 26 33 23 20 11 6 8 11 17 35 23 27 26 35 46 36 43 42 44 42 45 45 41 37 35 36 35
38 39 40 42 44 46 46 47 48 48 49 51 51 50 37 34 30 30 27 27 37 30 32 11 22 17 18 15 14 25 25 31 31 34 32 35 36 32 34 49 40 39 44 12 29 31 35
36 37 37 38 41 44 45 46 47 48 49 51 50 41 38 33 29 26 29 39 35 30 21 28 28 27 22 21 19 24 32 30 30 33 35 35 42 27 42 36 39 42 44 41 38 39 32
35 36 36 35 39 42 44 45 46 48 49 50 45 38 37 31 26 27 36 48 42 37 34 30 27 23 27 20 25 21 31 32 27 27 39 37 33 35 31 38 39 40 33 39 37 37 39
34 35 35 34 37 41 43 43 45 46 47 47 35 36 28 29 19 31 46 46 48 52 40 32 33 39 34 29 31 27 29 43 24 22 27 43 39 38 33 31 33 32 38 37 34 31 36
33 33 34 32 33 39 41 42 43 44 46 38 32 34 25 32 32 35 45 46 47 54 47 44 44 44 41 33 31 28 35 22 30 23 25 32 30 42 41 31 28 30 34 36 33 32 33
31 31 30 29 30 35 38 38 40 41 41 37 35 35 25 28 37 40 42 46 45 48 49 47 45 39 37 35 31 28 26 25 30 22 24 25 41 42 40 38 34 29 32 38 39 35 44
31 31 28 29 29 28 31 34 36 37 36 32 29 29 26 25 27 32 36 42 45 42 47 46 50 45 40 37 35 33 34 27 30 32 26 23 31 40 42 34 25 28 27 30 33 39 37
30 32 28 26 30 26 28 30 33 33 33 26 22 25 25 26 33 35 35 37 36 39 33 34 45 43 38 38 36 36 30 30 26 18 24 31 33 32 45 44 39 25 29 26 33 36 35
28 29 28 27 25 27 27 27 28 30 30 19 23 26 25 32 26 29 30 30 30 32 32 31 28 36 34 32 29 34 30 26 24 22 21 24 31 30 32 38 46 42 32 33 31 36 40
28 28 29 29 26 26 25 24 27 24 27 21 27 28 28 28 27 25 24 30 33 27 27 25 28 30 28 30 32 37 35 35 35 31 29 26 25 27 34 28 34 43 38 34 33 28 31
28 25 26 30 26 25 25 23 24 20 19 19 29 28 26 30 28 26 24 25 28 27 29 28 25 30 32 32 37 39 38 36 35 35 32 32 30 27 29 27 37 31 29 29 33 30 31
26 24 26 27 27 27 27 24 22 21 21 8 28 26 25 29 29 29 24 25 27 27 22 24 24 29 32 33 35 38 38 39 38 36 35 32 29 29 31 29 30 38 29 29 37 41 30
25 24 24 24 26 29 25 23 20 16 7 8 18 27 25 26 25 27 29 27 24 26 26 25 27 27 24 32 35 40 42 38 37 34 31 32 29 30 29 33 38 26 26 29 25 27 32
23 22 22 23 22 25 24 20 17 15 8 9 11 22 23 26 30 29 29 29 28 26 31 29 27 28 22 29 38 43 45 38 40 39 36 35 33 37 38 35 32 19 25 22 25 23 24
20 21 21 22 19 19 22 19 13 14 12 10 9 20 24 26 33 33 32 33 31 29 30 29 27 25 29 31 35 40 41 38 40 39 36 38 36 35 35 37 37 21 18 19 19 20 16
17 19 19 20 19 16 14 16 14 10 10 10 8 10 9 22 28 32 33 36 35 34 34 32 30 27 25 29 30 32 37 36 40 49 34 39 33 36 34 32 25 19 16 19 17 18 18
Wind_Direction
344 342 339 337 336 335 330 327 324 320 317 312 309 306 301 297 295 299 299 295 290 287 285 284 284 288 290 256 238 240 284 277 266 243 225 220 219 225 230 252 267 235 49 54 51 62 67
347 344 342 340 338 336 333 330 328 324 320 316 311 307 303 299 295 291 290 294 291 286 283 282 284 290 288 241 227 232 268 265 258 242 232 214 224 227 238 245 263 240 61 65 59 67 61
347 344 342 340 337 334 331 329 326 323 321 318 314 309 305 301 297 293 288 284 286 284 280 281 288 294 266 218 247 285 290 252 249 240 230 224 223 230 238 245 260 259 258 54 78 90 63
346 344 341 339 337 335 332 329 326 323 319 316 314 311 306 302 299 295 290 285 276 273 281 285 295 293 259 255 223 228 224 229 243 238 234 229 230 228 236 252 254 246 222 253 86 93 94
347 344 341 339 336 334 332 329 326 324 320 317 313 310 307 303 299 296 293 285 274 260 311 306 300 288 262 261 235 219 214 229 240 243 237 232 233 227 236 230 234 238 213 245 259 274 75
348 345 341 338 335 332 330 327 326 324 322 319 315 311 307 304 301 299 295 286 270 318 339 325 284 282 262 243 263 186 209 216 238 247 237 237 238 208 204 203 203 206 223 240 151 165 102
346 343 340 336 334 331 329 326 324 322 320 318 316 312 308 305 300 299 304 317 318 320 325 295 297 278 251 271 246 270 234 242 227 242 181 216 200 195 192 194 205 233 242 135 179 142 131
347 344 341 338 335 332 329 326 324 322 319 317 315 313 310 306 300 293 310 310 315 300 286 228 226 236 241 244 251 248 236 230 217 231 237 214 197 193 206 215 213 228 205 174 189 136 144
348 345 341 337 335 332 329 327 324 321 319 316 314 312 310 308 298 304 301 299 306 303 292 281 216 222 220 251 227 239 185 221 238 238 197 196 222 216 212 209 207 212 211 194 190 185 182
350 347 343 339 335 332 329 326 323 321 318 316 314 312 311 310 307 303 296 310 308 306 289 292 290 272 231 249 242 246 203 207 242 240 230 222 227 204 210 207 204 210 218 226 178 162 189
351 347 344 341 339 335 331 327 323 321 318 314 312 311 309 306 296 294 292 296 297 299 274 299 303 314 189 222 266 239 201 221 238 243 238 225 238 209 199 203 210 211 226 228 145 181 208
352 349 345 342 338 335 333 330 325 321 317 314 311 308 306 305 294 285 286 289 291 280 268 289 283 274 230 195 248 241 237 231 242 238 241 236 243 235 216 217 214 225 234 234 241 193 179
356 352 347 343 339 336 333 330 327 324 319 314 309 304 299 294 286 290 293 287 267 260 280 281 259 238 236 245 218 239 226 230 231 235 231 241 235 235 228 228 211 219 224 229 235 226 218
5 3 359 352 342 336 333 329 327 324 321 316 310 302 300 288 286 281 279 267 255 263 255 296 279 253 251 246 221 242 241 237 235 239 241 240 242 241 240 215 231 196 212 238 254 253 241
9 5 2 359 350 341 335 330 328 325 323 317 313 305 293 289 277 270 260 250 253 254 271 292 283 249 253 248 252 239 243 241 236 234 240 241 241 251 241 244 241 233 204 232 248 239 254
11 7 5 4 354 347 341 335 329 326 322 318 309 302 291 288 274 259 253 249 252 253 273 279 266 263 255 250 238 232 241 242 239 233 238 243 247 247 249 243 245 241 246 239 246 249 251
10 8 7 6 359 351 347 344 337 332 327 320 314 294 293 294 270 253 250 253 255 252 262 262 260 262 265 271 249 245 244 238 238 235 232 239 245 246 246 240 242 241 243 248 252 254 253
10 8 7 7 4 354 351 348 343 339 333 334 313 286 291 299 264 256 255 257 258 253 259 259 260 257 258 267 263 260 242 231 243 230 233 236 247 245 247 246 241 245 248 247 251 250 260
7 6 7 7 5 359 353 352 348 346 346 340 314 294 300 287 258 259 260 259 258 253 252 253 251 254 260 263 258 256 259 258 251 232 233 234 240 244 248 250 245 236 246 248 249 253 248
7 5 6 5 5 4 360 355 351 349 352 351 325 298 295 287 286 271 266 262 260 258 253 254 250 253 256 256 254 253 257 260 268 268 235 231 242 241 242 248 258 230 241 245 249 250 256
6 3 5 5 2 3 1 359 354 348 350 358 337 303 297 282 274 272 268 265 261 258 262 260 243 248 249 250 254 253 263 261 265 277 251 229 239 242 242 244 251 257 237 241 250 253 254
6 3 3 3 2 1 360 358 356 351 347 353 325 307 293 276 287 273 274 262 263 265 256 251 258 249 249 249 252 248 256 252 247 262 258 254 243 240 243 245 244 252 256 245 250 253 256
5 4 2 2 1 0 360 357 354 353 345 335 307 292 284 268 270 282 275 266 268 283 251 266 261 253 247 256 259 256 254 251 250 255 256 252 252 241 243 246 250 252 251 257 253 253 258
5 6 5 3 2 2 360 0 2 0 354 330 288 285 278 265 262 274 294 277 275 267 255 265 268 255 256 270 263 256 248 247 250 250 253 251 257 252 245 243 246 259 253 258 263 270 254
5 6 6 5 5 6 10 11 14 18 2 21 278 276 271 267 265 263 283 286 282 277 271 265 278 277 267 262 251 244 241 243 244 249 248 251 256 251 244 238 253 254 256 259 259 256 269
5 5 5 6 10 11 16 19 25 32 55 42 205 256 267 271 266 273 270 285 277 274 263 275 286 277 273 250 243 237 235 239 239 243 243 250 253 251 245 241 245 260 250 255 276 270 269
6 5 7 7 12 15 18 25 30 35 62 88 162 254 270 271 269 268 269 275 281 279 263 271 281 262 277 252 241 238 239 245 239 239 240 243 248 246 246 245 249 255 250 273 274 276 291
5 7 8 9 7 10 16 24 34 41 55 72 155 229 271 277 268 264 270 273 277 275 266 271 274 271 260 251 246 241 240 242 243 243 245 242 244 243 246 242 246 266 260 266 279 294 307
359 2 3 6 8 5 10 17 29 46 58 76 150 167 209 289 278 276 271 264 267 267 270 270 263 266 260 254 254 249 243 244 246 240 248 243 249 246 246 241 258 262 266 276 293 298 309